Location: Austin
(30.3000°N, 97.7500°W)
Time: 01:47:16
(UTC-05:00)

Meteor 2-21 Rocket - Pass Details

Date: 15 May 2024
Orbit: 935 x 967 km, 82.6° (Epoch: 19 May)

Event Time Altitude Azimuth Distance (km) Brightness Sun altitude
Exits shadow 22:28:33 34° 189° (S) 1,529 5.2 -24.4°
Maximum altitude 22:31:26 85° 274° (W) 975 4.4 -24.9°
Drops below altitude 10° 22:37:39 10° 5° (N) 2,705 7.3 -25.8°
Sets 22:40:10 0° 6° (N) 3,651 8.0 -26.2°
